NWS705 UWKD-URML

Flight info

Callsign NWS705
Flight time 2h 48m
Altitude 34000
Route N0460F340 SONU1G SONUM T789 DAFOS P135 UROBO R807 IDORI A927 SL A964 NOKLI N72 GORNU B945 AMKOL AMKO1J
Aircraft A21N/M-VGDW/C

Departure

Time 2026-04-27 14:02
Airport Kazan International Airport (UWKD)

Arrival

Time 2026-04-27 16:51
Airport Makhachkala Uytash International Airport (URML)
Time Latitude Longitude Altitude Speed Heading
2026-04-27 13:27 55.60729 49.29537 421 ft 0 kts 35°
2026-04-27 13:54 55.60730 49.29538 421 ft 1 kts 35°
2026-04-27 13:55 55.60743 49.29550 421 ft 3 kts 22°
2026-04-27 13:55 55.60774 49.29541 415 ft 6 kts 334°
2026-04-27 13:55 55.60805 49.29473 417 ft 9 kts 271°
2026-04-27 13:55 55.60766 49.29373 416 ft 11 kts 218°
2026-04-27 13:56 55.60700 49.29288 414 ft 13 kts 215°
2026-04-27 13:56 55.60620 49.29193 413 ft 14 kts 218°
2026-04-27 13:56 55.60575 49.29033 421 ft 16 kts 270°
2026-04-27 13:56 55.60583 49.28825 419 ft 17 kts 274°
2026-04-27 13:57 55.60601 49.28608 421 ft 19 kts 292°
2026-04-27 13:57 55.60673 49.28407 420 ft 20 kts 304°
2026-04-27 13:57 55.60754 49.28197 421 ft 21 kts 304°
2026-04-27 13:57 55.60840 49.27975 415 ft 22 kts 304°
2026-04-27 13:58 55.60930 49.27741 421 ft 24 kts 304°
2026-04-27 13:58 55.61026 49.27495 417 ft 25 kts 304°
2026-04-27 13:58 55.61127 49.27237 418 ft 26 kts 304°
2026-04-27 13:58 55.61232 49.26967 418 ft 27 kts 304°
2026-04-27 13:59 55.61342 49.26682 419 ft 29 kts 303°
2026-04-27 13:59 55.61457 49.26387 416 ft 30 kts 304°
2026-04-27 13:59 55.61577 49.26080 421 ft 31 kts 304°
2026-04-27 13:59 55.61698 49.25767 416 ft 31 kts 304°
2026-04-27 14:00 55.61775 49.25564 413 ft 12 kts 304°
2026-04-27 14:00 55.61827 49.25428 409 ft 14 kts 304°
2026-04-27 14:00 55.61824 49.25264 413 ft 16 kts 224°
2026-04-27 14:00 55.61740 49.25159 412 ft 15 kts 201°
2026-04-27 14:01 55.61648 49.25233 413 ft 17 kts 127°
2026-04-27 14:01 55.61605 49.25347 416 ft 0 kts 124°
2026-04-27 14:01 55.61568 49.25445 413 ft 40 kts 124°
2026-04-27 14:02 55.61233 49.26306 411 ft 128 kts 124°
2026-04-27 14:02 55.60592 49.27959 501 ft 188 kts 126°
2026-04-27 14:02 55.59876 49.29927 1413 ft 190 kts 122°
2026-04-27 14:02 55.59144 49.31916 2416 ft 198 kts 130°
2026-04-27 14:03 55.58299 49.33929 3102 ft 210 kts 131°
2026-04-27 14:03 55.57445 49.36051 3944 ft 214 kts 132°
2026-04-27 14:03 55.56584 49.38231 4860 ft 218 kts 131°
2026-04-27 14:03 55.55723 49.40429 5830 ft 217 kts 133°
2026-04-27 14:04 55.54850 49.42571 6623 ft 218 kts 139°
2026-04-27 14:04 55.53632 49.44194 7103 ft 225 kts 161°
2026-04-27 14:04 55.52104 49.44700 7447 ft 226 kts 182°
2026-04-27 14:04 55.50589 49.43952 7553 ft 232 kts 204°
2026-04-27 14:05 55.49362 49.42035 7571 ft 245 kts 226°
2026-04-27 14:05 55.48605 49.39254 7574 ft 257 kts 239°
2026-04-27 14:05 55.47909 49.36387 7564 ft 248 kts 227°
2026-04-27 14:05 55.46716 49.34390 7559 ft 233 kts 204°
2026-04-27 14:06 55.45252 49.33183 7566 ft 231 kts 199°
2026-04-27 14:06 55.43772 49.32070 7565 ft 231 kts 199°
2026-04-27 14:06 55.42295 49.30949 7562 ft 232 kts 199°
2026-04-27 14:06 55.40813 49.29807 7561 ft 231 kts 200°
2026-04-27 14:07 55.39339 49.28666 7561 ft 232 kts 200°
2026-04-27 14:07 55.37881 49.27541 7567 ft 232 kts 200°
2026-04-27 14:07 55.36397 49.26396 7569 ft 232 kts 200°
2026-04-27 14:07 55.34918 49.25255 7569 ft 232 kts 200°
2026-04-27 14:08 55.33438 49.24108 7570 ft 233 kts 200°
2026-04-27 14:08 55.31950 49.22956 7571 ft 233 kts 200°
2026-04-27 14:08 55.30466 49.21805 7569 ft 233 kts 200°
2026-04-27 14:08 55.28981 49.20656 7569 ft 233 kts 201°
2026-04-27 14:09 55.27496 49.19506 7571 ft 233 kts 201°
2026-04-27 14:09 55.26008 49.18358 7572 ft 234 kts 201°
2026-04-27 14:09 55.24517 49.17213 7565 ft 233 kts 201°
2026-04-27 14:09 55.23029 49.16067 7560 ft 235 kts 201°
2026-04-27 14:10 55.21536 49.14916 7560 ft 234 kts 201°
2026-04-27 14:10 55.20045 49.13767 7561 ft 234 kts 201°
2026-04-27 14:10 55.18555 49.12622 7560 ft 234 kts 201°
2026-04-27 14:10 55.17061 49.11471 7557 ft 235 kts 202°
2026-04-27 14:11 55.15620 49.10121 7822 ft 235 kts 206°
2026-04-27 14:11 55.14199 49.08685 8500 ft 238 kts 206°
2026-04-27 14:11 55.12752 49.07221 9280 ft 242 kts 206°
2026-04-27 14:11 55.11263 49.05722 9961 ft 255 kts 206°
2026-04-27 14:12 55.09671 49.04132 10275 ft 278 kts 205°
2026-04-27 14:12 55.07901 49.02359 10587 ft 299 kts 206°
2026-04-27 14:12 55.06087 49.00535 11204 ft 308 kts 206°
2026-04-27 14:12 55.04218 48.98657 11988 ft 311 kts 205°
2026-04-27 14:13 55.02335 48.96770 12808 ft 312 kts 204°
2026-04-27 14:13 55.00448 48.94885 13607 ft 314 kts 205°
2026-04-27 14:13 54.98546 48.92990 14352 ft 316 kts 204°
2026-04-27 14:13 54.96636 48.91088 15064 ft 318 kts 205°
2026-04-27 14:14 54.94715 48.89174 15751 ft 318 kts 204°
2026-04-27 14:14 54.92788 48.87262 16396 ft 320 kts 204°
2026-04-27 14:14 54.90848 48.85336 17016 ft 322 kts 204°
2026-04-27 14:14 54.88899 48.83404 17609 ft 323 kts 204°
2026-04-27 14:15 54.86940 48.81463 18203 ft 325 kts 204°
2026-04-27 14:15 54.84971 48.79513 18776 ft 326 kts 204°
2026-04-27 14:15 54.82994 48.77555 19332 ft 328 kts 204°
2026-04-27 14:15 54.81001 48.75590 19858 ft 330 kts 204°
2026-04-27 14:16 54.79000 48.73622 20392 ft 332 kts 204°
2026-04-27 14:16 54.76985 48.71646 20915 ft 334 kts 204°
2026-04-27 14:16 54.74962 48.69661 21419 ft 335 kts 204°
2026-04-27 14:16 54.72926 48.67663 21923 ft 337 kts 204°
2026-04-27 14:17 54.70877 48.65656 22417 ft 339 kts 205°
2026-04-27 14:17 54.68840 48.63664 22901 ft 341 kts 205°
2026-04-27 14:17 54.66763 48.61635 23395 ft 344 kts 205°
2026-04-27 14:17 54.64679 48.59601 23898 ft 345 kts 205°
2026-04-27 14:18 54.62583 48.57556 24394 ft 347 kts 205°
2026-04-27 14:18 54.60476 48.55504 24867 ft 349 kts 205°
2026-04-27 14:18 54.58355 48.53441 25305 ft 351 kts 205°
2026-04-27 14:18 54.56221 48.51369 25737 ft 353 kts 205°
2026-04-27 14:19 54.54073 48.49284 26147 ft 355 kts 205°
2026-04-27 14:19 54.51908 48.47186 26540 ft 358 kts 205°
2026-04-27 14:19 54.49738 48.45083 26923 ft 360 kts 206°
2026-04-27 14:19 54.47550 48.42963 27304 ft 361 kts 206°
2026-04-27 14:20 54.45354 48.40844 27665 ft 363 kts 206°
2026-04-27 14:20 54.43143 48.38715 28072 ft 363 kts 206°
2026-04-27 14:20 54.40945 48.36598 28514 ft 362 kts 206°
2026-04-27 14:20 54.38753 48.34489 28988 ft 360 kts 206°
2026-04-27 14:21 54.36571 48.32392 29429 ft 359 kts 206°
2026-04-27 14:21 54.34395 48.30299 29822 ft 359 kts 206°
2026-04-27 14:21 54.32216 48.28211 30233 ft 358 kts 206°
2026-04-27 14:21 54.30046 48.26136 30620 ft 357 kts 206°
2026-04-27 14:22 54.27903 48.24088 30952 ft 358 kts 206°
2026-04-27 14:22 54.25699 48.22102 31250 ft 358 kts 204°
2026-04-27 14:22 54.23429 48.20330 31545 ft 359 kts 202°
2026-04-27 14:22 54.21148 48.18593 31861 ft 360 kts 202°
2026-04-27 14:23 54.18853 48.16851 32142 ft 361 kts 203°
2026-04-27 14:23 54.16558 48.15108 32431 ft 361 kts 203°
2026-04-27 14:23 54.14256 48.13356 32718 ft 362 kts 203°
2026-04-27 14:23 54.11955 48.11605 32976 ft 363 kts 203°
2026-04-27 14:24 54.09651 48.09853 33241 ft 364 kts 203°
2026-04-27 14:24 54.07332 48.08091 33496 ft 364 kts 203°
2026-04-27 14:24 54.05011 48.06329 33626 ft 368 kts 204°
2026-04-27 14:25 54.00327 48.02785 33623 ft 369 kts 204°
2026-04-27 14:25 53.95640 47.99242 33617 ft 369 kts 204°
2026-04-27 14:26 53.90977 47.95725 33619 ft 369 kts 203°
2026-04-27 14:26 53.86285 47.92201 33621 ft 369 kts 203°
2026-04-27 14:27 53.81507 47.89032 33621 ft 369 kts 196°
2026-04-27 14:27 53.76503 47.86983 33621 ft 370 kts 195°
2026-04-27 14:28 53.71491 47.84981 33626 ft 370 kts 195°
2026-04-27 14:28 53.66638 47.82162 33629 ft 369 kts 202°
2026-04-27 14:29 53.61864 47.78961 33629 ft 369 kts 202°
2026-04-27 14:29 53.57089 47.75784 33629 ft 369 kts 201°
2026-04-27 14:30 53.52309 47.72623 33635 ft 370 kts 201°
2026-04-27 14:30 53.47539 47.69366 33638 ft 370 kts 205°
2026-04-27 14:31 53.42988 47.65315 33639 ft 370 kts 207°
2026-04-27 14:31 53.38483 47.61229 33640 ft 371 kts 207°
2026-04-27 14:32 53.33942 47.57138 33640 ft 371 kts 207°
2026-04-27 14:32 53.29402 47.53062 33648 ft 370 kts 207°
2026-04-27 14:33 53.24861 47.48992 33649 ft 370 kts 207°
2026-04-27 14:33 53.20313 47.44929 33649 ft 370 kts 207°
2026-04-27 14:34 53.15763 47.40877 33659 ft 371 kts 207°
2026-04-27 14:34 53.11219 47.36829 33661 ft 371 kts 207°
2026-04-27 14:35 53.06669 47.32790 33667 ft 370 kts 207°
2026-04-27 14:35 53.02112 47.28753 33668 ft 371 kts 207°
2026-04-27 14:36 52.97557 47.24733 33683 ft 371 kts 207°
2026-04-27 14:36 52.93032 47.20740 33680 ft 371 kts 208°
2026-04-27 14:37 52.88473 47.16739 33685 ft 371 kts 208°
2026-04-27 14:37 52.83917 47.12743 33690 ft 371 kts 207°
2026-04-27 14:38 52.79355 47.08749 33699 ft 371 kts 207°
2026-04-27 14:38 52.74789 47.04772 33702 ft 371 kts 208°
2026-04-27 14:39 52.70958 47.01433 33705 ft 371 kts 208°
2026-04-27 14:39 52.66422 46.97495 33709 ft 371 kts 208°
2026-04-27 14:40 52.61854 46.93544 33716 ft 371 kts 208°
2026-04-27 14:40 52.57282 46.89595 33721 ft 371 kts 208°
2026-04-27 14:41 52.52701 46.85646 33729 ft 372 kts 208°
2026-04-27 14:41 52.48126 46.81697 33737 ft 372 kts 208°
2026-04-27 14:42 52.43537 46.77763 33741 ft 372 kts 208°
2026-04-27 14:42 52.38945 46.73833 33744 ft 372 kts 208°
2026-04-27 14:43 52.34373 46.69929 33746 ft 373 kts 208°
2026-04-27 14:43 52.29762 46.65997 33753 ft 373 kts 208°
2026-04-27 14:44 52.25144 46.62071 33746 ft 375 kts 208°
2026-04-27 14:44 52.20516 46.58143 33761 ft 375 kts 208°
2026-04-27 14:45 52.15907 46.54241 33752 ft 375 kts 208°
2026-04-27 14:45 52.11281 46.50325 33761 ft 375 kts 208°
2026-04-27 14:46 52.06649 46.46419 33773 ft 375 kts 208°
2026-04-27 14:46 52.02012 46.42528 33762 ft 375 kts 208°
2026-04-27 14:47 51.97363 46.38639 33753 ft 375 kts 208°
2026-04-27 14:47 51.92732 46.34771 33772 ft 375 kts 208°
2026-04-27 14:48 51.88090 46.30898 33769 ft 375 kts 208°
2026-04-27 14:48 51.81114 46.25099 33787 ft 375 kts 208°
2026-04-27 14:49 51.76473 46.21246 33790 ft 375 kts 208°
2026-04-27 14:49 51.71857 46.17427 33791 ft 375 kts 208°
2026-04-27 14:50 51.67212 46.13591 33790 ft 375 kts 208°
2026-04-27 14:50 51.62569 46.09761 33792 ft 375 kts 208°
2026-04-27 14:51 51.57916 46.05937 33791 ft 374 kts 208°
2026-04-27 14:51 51.53234 46.02260 33791 ft 374 kts 207°
2026-04-27 14:52 51.48527 45.98672 33788 ft 375 kts 207°
2026-04-27 14:52 51.43800 45.95074 33792 ft 377 kts 207°
2026-04-27 14:53 51.39093 45.91492 33790 ft 377 kts 207°
2026-04-27 14:53 51.34355 45.87899 33790 ft 377 kts 207°
2026-04-27 14:54 51.29613 45.84312 33791 ft 377 kts 207°
2026-04-27 14:54 51.24877 45.80738 33791 ft 377 kts 207°
2026-04-27 14:55 51.20137 45.77167 33790 ft 376 kts 207°
2026-04-27 14:55 51.15404 45.73610 33791 ft 376 kts 207°
2026-04-27 14:56 51.10674 45.70061 33790 ft 376 kts 207°
2026-04-27 14:56 51.05943 45.66520 33789 ft 376 kts 207°
2026-04-27 14:57 51.01045 45.63597 33795 ft 380 kts 198°
2026-04-27 14:57 50.95885 45.61783 33799 ft 380 kts 197°
2026-04-27 14:58 50.90761 45.59978 33800 ft 379 kts 197°
2026-04-27 14:58 50.85621 45.58141 33800 ft 378 kts 198°
2026-04-27 14:59 50.80478 45.56304 33808 ft 378 kts 198°
2026-04-27 14:59 50.75349 45.54484 33828 ft 378 kts 197°
2026-04-27 15:00 50.70218 45.52695 33829 ft 377 kts 198°
2026-04-27 15:00 50.65096 45.50904 33838 ft 376 kts 198°
2026-04-27 15:01 50.59978 45.49126 33841 ft 376 kts 198°
2026-04-27 15:01 50.54865 45.47356 33840 ft 375 kts 198°
2026-04-27 15:02 50.49790 45.45603 33848 ft 375 kts 198°
2026-04-27 15:02 50.44691 45.43847 33851 ft 375 kts 198°
2026-04-27 15:03 50.39599 45.42091 33857 ft 375 kts 198°
2026-04-27 15:03 50.34504 45.40337 33860 ft 375 kts 198°
2026-04-27 15:04 50.29407 45.38585 33867 ft 375 kts 198°
2026-04-27 15:04 50.24314 45.36842 33871 ft 374 kts 198°
2026-04-27 15:05 50.19217 45.35110 33874 ft 375 kts 197°
2026-04-27 15:05 50.14083 45.33595 33880 ft 376 kts 197°
2026-04-27 15:06 50.09007 45.31762 33884 ft 374 kts 199°
2026-04-27 15:06 50.03931 45.29958 33885 ft 375 kts 198°
2026-04-27 15:07 49.98868 45.28056 33896 ft 373 kts 200°
2026-04-27 15:07 49.93914 45.25830 33901 ft 370 kts 202°
2026-04-27 15:08 49.88994 45.23599 33905 ft 371 kts 201°
2026-04-27 15:08 49.84085 45.21180 33908 ft 368 kts 207°
2026-04-27 15:09 49.79284 45.18349 33922 ft 371 kts 203°
2026-04-27 15:09 49.74345 45.16000 33930 ft 373 kts 201°
2026-04-27 15:10 49.69351 45.13792 33930 ft 373 kts 201°
2026-04-27 15:10 49.64303 45.11600 33960 ft 379 kts 201°
2026-04-27 15:11 49.59145 45.09877 33963 ft 383 kts 197°
2026-04-27 15:11 49.53941 45.08180 33968 ft 381 kts 200°
2026-04-27 15:12 49.48818 45.06095 33970 ft 380 kts 201°
2026-04-27 15:12 49.43714 45.03918 33970 ft 381 kts 201°
2026-04-27 15:13 49.38603 45.01729 33966 ft 381 kts 201°
2026-04-27 15:13 49.33497 44.99546 33977 ft 381 kts 201°
2026-04-27 15:14 49.28384 44.97363 33980 ft 381 kts 201°
2026-04-27 15:14 49.23271 44.95183 33980 ft 381 kts 201°
2026-04-27 15:15 49.18190 44.93024 33980 ft 381 kts 201°
2026-04-27 15:15 49.13074 44.90853 33986 ft 382 kts 201°
2026-04-27 15:16 49.07950 44.88685 33990 ft 381 kts 201°
2026-04-27 15:16 49.02846 44.86480 33991 ft 381 kts 201°
2026-04-27 15:17 48.97735 44.84307 33989 ft 381 kts 201°
2026-04-27 15:17 48.92611 44.82147 33989 ft 382 kts 201°
2026-04-27 15:18 48.87515 44.80006 33989 ft 383 kts 201°
2026-04-27 15:18 48.82400 44.77763 33989 ft 381 kts 204°
2026-04-27 15:19 48.77360 44.75251 33990 ft 381 kts 204°
2026-04-27 15:19 48.72206 44.73242 33987 ft 390 kts 193°
2026-04-27 15:20 48.69458 44.73209 33989 ft 401 kts 183°
2026-04-27 15:20 48.66682 44.74026 33990 ft 414 kts 173°
2026-04-27 15:20 48.63977 44.75735 33991 ft 431 kts 161°
2026-04-27 15:20 48.61465 44.78358 33990 ft 448 kts 149°
2026-04-27 15:21 48.59298 44.81865 33991 ft 467 kts 136°
2026-04-27 15:21 48.57529 44.86054 33996 ft 476 kts 130°
2026-04-27 15:21 48.54203 44.94691 33996 ft 474 kts 130°
2026-04-27 15:22 48.50846 45.03162 34000 ft 473 kts 131°
2026-04-27 15:22 48.47440 45.11664 34000 ft 473 kts 131°
2026-04-27 15:23 48.43679 45.19593 33995 ft 451 kts 147°
2026-04-27 15:23 48.41261 45.22448 33999 ft 433 kts 159°
2026-04-27 15:23 48.38610 45.24365 34000 ft 416 kts 171°
2026-04-27 15:24 48.35854 45.25381 34000 ft 401 kts 181°
2026-04-27 15:24 48.33107 45.25623 34003 ft 393 kts 188°
2026-04-27 15:24 48.27792 45.24635 34002 ft 380 kts 201°
2026-04-27 15:25 48.22745 45.22367 33999 ft 378 kts 204°
2026-04-27 15:25 48.17736 45.19952 34000 ft 378 kts 204°
2026-04-27 15:26 48.12763 45.17547 34001 ft 378 kts 204°
2026-04-27 15:26 48.07741 45.15135 34007 ft 379 kts 203°
2026-04-27 15:27 48.02437 45.14074 34009 ft 397 kts 186°
2026-04-27 15:27 47.99669 45.14699 34012 ft 410 kts 175°
2026-04-27 15:27 47.96939 45.16186 34013 ft 425 kts 165°
2026-04-27 15:28 47.91632 45.20232 34013 ft 429 kts 163°
2026-04-27 15:28 47.87224 45.23604 34010 ft 428 kts 163°
2026-04-27 15:29 47.81039 45.28243 34017 ft 428 kts 163°
2026-04-27 15:29 47.75718 45.32212 34019 ft 428 kts 163°
2026-04-27 15:30 47.71292 45.35506 34018 ft 427 kts 164°
2026-04-27 15:30 47.65901 45.39056 34017 ft 424 kts 166°
2026-04-27 15:31 47.60545 45.42816 34036 ft 427 kts 164°
2026-04-27 15:31 47.55210 45.46742 34027 ft 428 kts 163°
2026-04-27 15:32 47.49884 45.50674 34035 ft 428 kts 163°
2026-04-27 15:32 47.44560 45.54595 34033 ft 428 kts 163°
2026-04-27 15:33 47.39232 45.58507 34038 ft 428 kts 163°
2026-04-27 15:33 47.33902 45.62412 34043 ft 427 kts 163°
2026-04-27 15:34 47.28603 45.66285 34035 ft 428 kts 163°
2026-04-27 15:34 47.23243 45.70071 34043 ft 427 kts 164°
2026-04-27 15:35 47.17898 45.73914 34045 ft 428 kts 163°
2026-04-27 15:35 47.12558 45.77806 34048 ft 428 kts 163°
2026-04-27 15:36 47.07212 45.81690 34051 ft 428 kts 163°
2026-04-27 15:36 47.01873 45.85573 34049 ft 429 kts 163°
2026-04-27 15:37 46.96526 45.89445 34050 ft 429 kts 163°
2026-04-27 15:37 46.91163 45.93318 34052 ft 429 kts 163°
2026-04-27 15:38 46.85806 45.97187 34051 ft 430 kts 163°
2026-04-27 15:38 46.80441 46.01041 34050 ft 430 kts 162°
2026-04-27 15:39 46.75077 46.04895 34052 ft 429 kts 162°
2026-04-27 15:39 46.69713 46.08740 34059 ft 429 kts 162°
2026-04-27 15:40 46.64381 46.12550 34060 ft 429 kts 162°
2026-04-27 15:40 46.59008 46.16378 34059 ft 430 kts 162°
2026-04-27 15:41 46.53635 46.20206 34066 ft 430 kts 162°
2026-04-27 15:41 46.48258 46.24023 34070 ft 430 kts 162°
2026-04-27 15:42 46.42878 46.27837 34071 ft 430 kts 162°
2026-04-27 15:42 46.37494 46.31639 34070 ft 431 kts 162°
2026-04-27 15:43 46.32110 46.35436 34084 ft 430 kts 162°
2026-04-27 15:43 46.26729 46.39227 34090 ft 430 kts 162°
2026-04-27 15:44 46.21371 46.42990 34093 ft 430 kts 162°
2026-04-27 15:44 46.15988 46.46760 34093 ft 430 kts 162°
2026-04-27 15:45 46.10591 46.50537 34092 ft 431 kts 162°
2026-04-27 15:45 46.05204 46.54307 34089 ft 431 kts 162°
2026-04-27 15:46 45.99809 46.58075 34089 ft 431 kts 162°
2026-04-27 15:46 45.94413 46.61829 34085 ft 432 kts 161°
2026-04-27 15:47 45.89005 46.65601 34093 ft 432 kts 161°
2026-04-27 15:47 45.83595 46.69363 34093 ft 432 kts 161°
2026-04-27 15:48 45.78178 46.73129 34089 ft 433 kts 161°
2026-04-27 15:49 45.70043 46.78756 34091 ft 433 kts 161°
2026-04-27 15:49 45.64657 46.82481 34098 ft 433 kts 161°
2026-04-27 15:50 45.59230 46.86219 34101 ft 434 kts 161°
2026-04-27 15:50 45.53793 46.89959 34101 ft 434 kts 161°
2026-04-27 15:51 45.48355 46.93694 34100 ft 433 kts 161°
2026-04-27 15:51 45.42922 46.97426 34100 ft 433 kts 160°
2026-04-27 15:52 45.37498 47.01141 34100 ft 433 kts 160°
2026-04-27 15:52 45.32063 47.04857 34100 ft 433 kts 160°
2026-04-27 15:53 45.26634 47.08566 34100 ft 433 kts 160°
2026-04-27 15:53 45.21195 47.12269 34100 ft 433 kts 160°
2026-04-27 15:54 45.15788 47.15936 34100 ft 433 kts 160°
2026-04-27 15:54 45.10344 47.19631 34101 ft 434 kts 160°
2026-04-27 15:55 45.04834 47.23068 34106 ft 429 kts 169°
2026-04-27 15:55 44.99047 47.24511 34113 ft 421 kts 178°
2026-04-27 15:56 44.93229 47.25585 34110 ft 421 kts 178°
2026-04-27 15:56 44.87417 47.26701 34110 ft 421 kts 177°
2026-04-27 15:57 44.81639 47.27826 34110 ft 422 kts 177°
2026-04-27 15:57 44.75810 47.28968 34111 ft 422 kts 177°
2026-04-27 15:58 44.69985 47.30092 34116 ft 422 kts 177°
2026-04-27 15:58 44.64166 47.31213 34120 ft 423 kts 177°
2026-04-27 15:59 44.58337 47.32340 34120 ft 422 kts 177°
2026-04-27 15:59 44.52505 47.33467 34120 ft 423 kts 177°
2026-04-27 16:00 44.46665 47.34553 34121 ft 423 kts 178°
2026-04-27 16:00 44.40859 47.35607 34120 ft 423 kts 178°
2026-04-27 16:01 44.35015 47.36681 34120 ft 423 kts 178°
2026-04-27 16:01 44.29170 47.37761 34120 ft 424 kts 178°
2026-04-27 16:02 44.23320 47.38833 34124 ft 424 kts 178°
2026-04-27 16:02 44.17469 47.39906 34130 ft 423 kts 178°
2026-04-27 16:03 44.11672 47.40969 34127 ft 417 kts 178°
2026-04-27 16:03 44.05890 47.42020 34135 ft 424 kts 178°
2026-04-27 16:04 44.00033 47.43084 34130 ft 424 kts 178°
2026-04-27 16:04 43.94169 47.44148 34130 ft 425 kts 177°
2026-04-27 16:05 43.88334 47.45212 34130 ft 425 kts 177°
2026-04-27 16:05 43.82469 47.46272 34129 ft 423 kts 177°
2026-04-27 16:06 43.76674 47.47316 34127 ft 417 kts 178°
2026-04-27 16:06 43.70866 47.48355 34134 ft 425 kts 177°
2026-04-27 16:07 43.64987 47.49413 34124 ft 425 kts 177°
2026-04-27 16:07 43.59130 47.50737 34121 ft 428 kts 173°
2026-04-27 16:08 43.53294 47.52416 34125 ft 429 kts 173°
2026-04-27 16:08 43.50405 47.53240 33851 ft 422 kts 173°
2026-04-27 16:08 43.47564 47.54046 33399 ft 421 kts 173°
2026-04-27 16:08 43.44693 47.54861 32807 ft 420 kts 173°
2026-04-27 16:09 43.41830 47.55671 32144 ft 421 kts 173°
2026-04-27 16:09 43.36062 47.57303 30651 ft 426 kts 173°
2026-04-27 16:09 43.33154 47.58125 29946 ft 426 kts 173°
2026-04-27 16:10 43.27346 47.59759 28623 ft 425 kts 173°
2026-04-27 16:10 43.21579 47.61380 27368 ft 421 kts 173°
2026-04-27 16:11 43.18718 47.62183 26720 ft 420 kts 173°
2026-04-27 16:11 43.13105 47.64373 25443 ft 423 kts 159°
2026-04-27 16:12 43.08366 47.69233 24123 ft 432 kts 137°
2026-04-27 16:12 43.06346 47.72275 23464 ft 432 kts 135°
2026-04-27 16:12 43.02376 47.78349 22158 ft 430 kts 135°
2026-04-27 16:13 43.00365 47.81355 21480 ft 425 kts 135°
2026-04-27 16:13 42.96403 47.87240 20197 ft 416 kts 135°
2026-04-27 16:13 42.94455 47.90124 19598 ft 410 kts 135°
2026-04-27 16:14 42.90618 47.95739 18466 ft 398 kts 138°
2026-04-27 16:14 42.86040 47.99538 17427 ft 379 kts 157°
2026-04-27 16:15 42.81317 48.02509 16410 ft 368 kts 157°
2026-04-27 16:15 42.76698 48.05455 15430 ft 367 kts 156°
2026-04-27 16:16 42.72095 48.08402 14441 ft 368 kts 156°
2026-04-27 16:16 42.67467 48.11359 13468 ft 367 kts 157°
2026-04-27 16:17 42.62607 48.12679 12483 ft 352 kts 179°
2026-04-27 16:17 42.57780 48.12603 11530 ft 341 kts 190°
2026-04-27 16:18 42.54032 48.11115 10916 ft 333 kts 199°
2026-04-27 16:18 42.49312 48.08291 10483 ft 304 kts 218°
2026-04-27 16:19 42.48221 48.07137 10388 ft 296 kts 220°
2026-04-27 16:19 42.46631 48.05405 10188 ft 290 kts 220°
2026-04-27 16:20 42.42678 47.99393 9235 ft 286 kts 242°
2026-04-27 16:20 42.41648 47.97089 8901 ft 286 kts 242°
2026-04-27 16:20 42.39913 47.92332 8241 ft 281 kts 260°
2026-04-27 16:21 42.39512 47.89753 7929 ft 278 kts 263°
2026-04-27 16:21 42.38713 47.82218 7001 ft 263 kts 280°
2026-04-27 16:22 42.38985 47.79808 6707 ft 256 kts 287°
2026-04-27 16:22 42.40839 47.75973 6088 ft 243 kts 326°
2026-04-27 16:22 42.42361 47.75088 5814 ft 243 kts 345°
2026-04-27 16:23 42.44047 47.75029 5518 ft 245 kts
2026-04-27 16:23 42.47328 47.76433 4953 ft 248 kts 14°
2026-04-27 16:23 42.48952 47.77197 4658 ft 247 kts 13°
2026-04-27 16:24 42.50566 47.77937 4349 ft 243 kts 13°
2026-04-27 16:24 42.53705 47.79356 3877 ft 229 kts 13°
2026-04-27 16:25 42.56523 47.80615 3854 ft 199 kts 11°
2026-04-27 16:25 42.59137 47.81756 3877 ft 199 kts 12°
2026-04-27 16:26 42.61617 47.82205 3863 ft 169 kts 342°
2026-04-27 16:26 42.63743 47.80844 3818 ft 169 kts 330°
2026-04-27 16:27 42.65720 47.79176 3465 ft 168 kts 329°
2026-04-27 16:27 42.68262 47.76955 2906 ft 123 kts 330°
2026-04-27 16:28 42.69644 47.75543 2570 ft 125 kts 323°
2026-04-27 16:28 42.70970 47.74336 2271 ft 113 kts 330°
2026-04-27 16:29 42.73017 47.72608 1820 ft 116 kts 330°
2026-04-27 16:30 42.74540 47.71323 1845 ft 152 kts 330°
2026-04-27 16:30 42.76560 47.69621 2235 ft 200 kts 328°
2026-04-27 16:31 42.80697 47.66070 3099 ft 230 kts 329°
2026-04-27 16:31 42.83405 47.63774 3099 ft 229 kts 329°
2026-04-27 16:32 42.86106 47.61484 3092 ft 227 kts 329°
2026-04-27 16:32 42.87448 47.60341 3093 ft 228 kts 328°
2026-04-27 16:33 42.90156 47.58081 3749 ft 231 kts 336°
2026-04-27 16:33 42.91704 47.57584 3874 ft 227 kts 355°
2026-04-27 16:33 42.93256 47.58036 3893 ft 235 kts 21°
2026-04-27 16:33 42.94513 47.59508 3895 ft 246 kts 47°
2026-04-27 16:34 42.95426 47.61513 3898 ft 250 kts 53°
2026-04-27 16:34 42.96268 47.63600 3893 ft 251 kts 54°
2026-04-27 16:34 42.96855 47.65861 3884 ft 263 kts 77°
2026-04-27 16:34 42.96867 47.68361 3890 ft 268 kts 90°
2026-04-27 16:35 42.96466 47.70818 3890 ft 259 kts 100°
2026-04-27 16:35 42.95857 47.73117 3881 ft 258 kts 110°
2026-04-27 16:35 42.94023 47.77385 3890 ft 261 kts 117°
2026-04-27 16:36 42.93079 47.79464 3892 ft 261 kts 117°
2026-04-27 16:36 42.92019 47.81479 3888 ft 263 kts 128°
2026-04-27 16:36 42.90771 47.83329 3891 ft 266 kts 130°
2026-04-27 16:36 42.89496 47.85162 3891 ft 266 kts 130°
2026-04-27 16:37 42.88229 47.86996 3891 ft 265 kts 130°
2026-04-27 16:37 42.86863 47.88690 3894 ft 266 kts 137°
2026-04-27 16:37 42.85440 47.90291 3892 ft 265 kts 138°
2026-04-27 16:37 42.84007 47.91894 3892 ft 267 kts 138°
2026-04-27 16:38 42.82566 47.93497 3893 ft 268 kts 138°
2026-04-27 16:38 42.81120 47.95100 3892 ft 269 kts 138°
2026-04-27 16:38 42.79669 47.96707 3891 ft 269 kts 138°
2026-04-27 16:38 42.78212 47.98311 3891 ft 269 kts 138°
2026-04-27 16:39 42.76753 47.99914 3891 ft 269 kts 138°
2026-04-27 16:39 42.75292 48.01524 3895 ft 270 kts 138°
2026-04-27 16:39 42.73840 48.03139 3901 ft 270 kts 138°
2026-04-27 16:39 42.72337 48.04664 3898 ft 271 kts 152°
2026-04-27 16:40 42.70542 48.05342 3897 ft 266 kts 181°
2026-04-27 16:40 42.68781 48.04953 3902 ft 253 kts 207°
2026-04-27 16:40 42.67208 48.03997 3916 ft 250 kts 213°
2026-04-27 16:40 42.65649 48.02954 3917 ft 250 kts 213°
2026-04-27 16:41 42.64092 48.01905 3916 ft 250 kts 213°
2026-04-27 16:41 42.62590 48.00760 3907 ft 242 kts 227°
2026-04-27 16:41 42.61374 47.99216 3915 ft 238 kts 234°
2026-04-27 16:41 42.60225 47.97601 3912 ft 238 kts 235°
2026-04-27 16:42 42.59105 47.95972 3905 ft 233 kts 241°
2026-04-27 16:42 42.58455 47.94081 3902 ft 214 kts 271°
2026-04-27 16:42 42.58494 47.92128 3913 ft 205 kts 286°
2026-04-27 16:42 42.58810 47.90266 3915 ft 200 kts 295°
2026-04-27 16:43 42.59308 47.88518 3916 ft 198 kts 299°
2026-04-27 16:43 42.59833 47.86803 3914 ft 198 kts 299°
2026-04-27 16:43 42.60362 47.85079 3911 ft 198 kts 299°
2026-04-27 16:43 42.60925 47.83384 3903 ft 192 kts 311°
2026-04-27 16:44 42.61842 47.82259 3892 ft 170 kts 329°
2026-04-27 16:44 42.62856 47.81453 3892 ft 169 kts 332°
2026-04-27 16:44 42.63875 47.80670 3802 ft 165 kts 331°
2026-04-27 16:44 42.64813 47.79912 3681 ft 150 kts 330°
2026-04-27 16:45 42.65666 47.79194 3506 ft 137 kts 330°
2026-04-27 16:45 42.66417 47.78550 3307 ft 122 kts 330°
2026-04-27 16:45 42.67128 47.77937 3139 ft 121 kts 330°
2026-04-27 16:45 42.67835 47.77326 2983 ft 120 kts 330°
2026-04-27 16:46 42.68539 47.76715 2826 ft 121 kts 329°
2026-04-27 16:46 42.69261 47.76087 2666 ft 125 kts 328°
2026-04-27 16:46 42.69988 47.75453 2498 ft 124 kts 328°
2026-04-27 16:46 42.70717 47.74817 2366 ft 125 kts 329°
2026-04-27 16:47 42.71422 47.74201 2210 ft 113 kts 329°
2026-04-27 16:47 42.72087 47.73618 2047 ft 115 kts 328°
2026-04-27 16:47 42.72765 47.73025 1886 ft 116 kts 328°
2026-04-27 16:47 42.73440 47.72435 1730 ft 116 kts 328°
2026-04-27 16:48 42.74117 47.71844 1571 ft 116 kts 328°
2026-04-27 16:48 42.74799 47.71247 1407 ft 117 kts 327°
2026-04-27 16:48 42.75487 47.70645 1248 ft 118 kts 327°
2026-04-27 16:49 42.76866 47.69438 939 ft 118 kts 327°
2026-04-27 16:49 42.77555 47.68836 780 ft 118 kts 327°
2026-04-27 16:49 42.78251 47.68226 628 ft 119 kts 328°
2026-04-27 16:49 42.78947 47.67616 465 ft 119 kts 328°
2026-04-27 16:50 42.79644 47.66997 302 ft 120 kts 325°
2026-04-27 16:50 42.80350 47.66383 156 ft 121 kts 330°
2026-04-27 16:50 42.81063 47.65770 58 ft 120 kts 329°
2026-04-27 16:50 42.81739 47.65203 33 ft 104 kts 329°
2026-04-27 16:51 42.82270 47.64755 28 ft 64 kts 327°
2026-04-27 16:51 42.82464 47.64577 27 ft 27 kts 326°
2026-04-27 16:51 42.82528 47.64522 27 ft 2 kts 326°
2026-04-27 16:51 42.82549 47.64503 26 ft 5 kts 328°
2026-04-27 16:52 42.82584 47.64476 28 ft 7 kts 330°
2026-04-27 16:52 42.82634 47.64462 27 ft 9 kts
2026-04-27 16:52 42.82605 47.64450 27 ft 11 kts 146°
2026-04-27 16:52 42.82530 47.64519 27 ft 14 kts 147°
2026-04-27 16:53 42.82438 47.64592 27 ft 16 kts 151°
2026-04-27 16:53 42.82335 47.64683 28 ft 19 kts 139°
2026-04-27 16:53 42.82220 47.64786 27 ft 20 kts 147°
2026-04-27 16:53 42.82094 47.64891 26 ft 22 kts 149°
2026-04-27 16:54 42.81967 47.65001 25 ft 21 kts 140°
2026-04-27 16:54 42.81946 47.65167 26 ft 18 kts 61°
2026-04-27 16:54 42.82007 47.65311 26 ft 10 kts 59°
2026-04-27 16:54 42.82010 47.65411 27 ft 13 kts 124°
2026-04-27 16:55 42.82000 47.65447 27 ft 2 kts 94°
2026-04-27 16:55 42.82001 47.65477 27 ft 5 kts 78°
2026-04-27 16:55 42.82012 47.65510 27 ft 2 kts 63°
2026-04-27 16:55 42.82014 47.65517 27 ft 0 kts 62°
2026-04-27 16:56 42.82015 47.65517 27 ft 1 kts 62°
2026-04-27 16:56 42.82017 47.65523 27 ft 0 kts 59°